Station SXHW3 - Saxon Harbor, WI Image indicating link to RSS feed of recent meteorological observations for station SXHW3


Conditions at SXHW3 as of
(2:40 am CDT)
0740 GMT on 04/17/2024:
     

Click on the graph icon in the table below to see a time series plot of the last five days of that observation.

5-day plot - Wind Direction Wind Direction (WDIR): E ( 100 deg true )
5-day plot - Wind Speed Wind Speed (WSPD): 4.1 kts
5-day plot - Wind Gust Wind Gust (GST): 8.0 kts
5-day plot - Atmospheric Pressure Atmospheric Pressure (PRES):29.60 in
5-day plot - Air Temperature Air Temperature (ATMP): 45.7 °F
5-day plot - Wind Chill Wind Chill (CHILL): 43.3 °F
5-day plot - Wind Speed at 10 Meters Wind Speed at 10 meters (WSPD10M): 3.9 kts
5-day plot - Wind Speed at 20 Meters Wind Speed at 20 meters (WSPD20M): 3.9 kts
5-day plot -  Wind Speed, Wind Gust and Atmospheric Pressure Combined plot of Wind Speed, Gust, and Air Pressure
Previous observations
TIME
(CDT)
5-day plot - Wind Direction
WDIR
 
5-day plot - Wind Speed
WSPD
kts
5-day plot - Wind Gust
GST
kts
5-day plot - Wave Height
WVHT
ft
5-day plot - Dominant Wave Period
DPD
sec
5-day plot - Average Wave Period
APD
sec
5-day plot - Mean Wave Direction
MWD
 
5-day plot - Atmospheric Pressure
PRES
in
5-day plot - Pressure Tendency
PTDY
in
5-day plot - Air Temperature
ATMP
°F
5-day plot - Water Temperature
WTMP
°F
5-day plot - Dew Point
DEWP
°F
5-day plot - Salinity
SAL
psu
5-day plot - Visibility
VIS
nmi
5-day plot - Tide (above MLLW)
TIDE
ft
2024-04-17 02:30 am SE 5.1 11.1----29.60- 45.7-----
2024-04-17 02:20 am E 6.0 13.0----29.59- 45.9-----
2024-04-17 02:10 am E 2.9 8.0----29.61- 46.2-----
2024-04-17 02:00 amENE 5.1 9.9----29.61-0.11 46.2-----
2024-04-17 01:50 am E 5.1 9.9----29.60- 45.9-----
2024-04-17 01:40 am E 2.9 12.0----29.62- 45.9-----
2024-04-17 01:30 am E 6.0 13.0----29.62- 45.3-----
2024-04-17 01:20 am E 4.1 8.9----29.63- 45.5-----
2024-04-17 01:10 amENE 5.1 7.0----29.64- 45.1-----
2024-04-17 01:00 am E 4.1 8.9----29.64-0.12 44.8-----
2024-04-17 12:50 amENE 5.1 8.0----29.65- 44.8-----
2024-04-17 12:40 amENE 6.0 9.9----29.65- 44.6-----
2024-04-17 12:30 amENE 7.0 7.0----29.66- 44.2-----
2024-04-17 12:20 amENE 2.9 18.1----29.67- 43.3-----
2024-04-17 12:10 am E 4.1 8.9----29.68- 43.0-----
2024-04-17 12:00 amENE 7.0 9.9----29.69-0.13 42.1-----
2024-04-16 11:50 pmENE 7.0 11.1----29.70- 41.7-----
2024-04-16 11:40 pmENE 8.9 15.9----29.70- 41.7-----
2024-04-16 11:30 pm NE 14.0 18.1----29.70- 41.7-----
2024-04-16 11:20 pm NE 12.0 15.9----29.72- 42.3-----
2024-04-16 11:10 pm NE 15.0 17.1----29.71- 42.1-----
2024-04-16 11:00 pm NE 12.0 15.0----29.72-0.02 42.3-----
2024-04-16 10:50 pm NE 14.0 15.9----29.72- 42.8-----
2024-04-16 10:40 pm NE 9.9 15.0----29.73- 42.8-----
2024-04-16 10:30 pmNNE 5.1 8.0----29.75- 42.8-----
2024-04-16 10:20 pmENE 7.0 14.0----29.75- 42.4-----
2024-04-16 10:10 pm NE 13.0 15.0----29.75- 42.1-----
2024-04-16 10:01 pmENE 12.0 14.0----29.76- 40.8-----
2024-04-16 10:00 pmENE 12.0 14.0----29.76+0.06 40.8-----
2024-04-16 09:50 pm NE 11.1 12.0----29.77- 40.8-----
2024-04-16 09:40 pmENE 6.0 7.0----29.78- 41.5-----
2024-04-16 09:30 pmENE 7.0 8.9----29.79- 42.3-----
2024-04-16 09:20 pm E 2.9 4.1----29.80- 44.2-----
2024-04-16 09:10 pm E 2.9 4.1----29.80- 44.4-----
2024-04-16 09:00 pm E 2.9 15.0----29.81- 45.1-----
2024-04-16 08:50 pm S 1.9 6.0----29.84- 45.9-----
2024-04-16 08:40 pm S 1.9 9.9----29.84- 48.7-----
2024-04-16 08:30 pmSSE 6.0 15.0----29.83- 53.1-----
2024-04-16 08:20 pm W 7.0 11.1----29.83- 53.4-----
2024-04-16 08:10 pmSSW 2.9 9.9----29.77- 54.0-----
2024-04-16 08:00 pm E 1.0 22.0----29.73-------
2024-04-16 07:50 pmSSE 5.1 13.0----29.73- 58.6-----
2024-04-16 07:40 pm E 1.9 11.1----29.72- 58.6-----
2024-04-16 07:30 pm E 7.0 22.0----29.70- 59.5-----
2024-04-16 07:20 pm E 7.0 17.1----29.70- 59.0-----
2024-04-16 07:10 pmENE 11.1 17.1----29.68- 59.7-----
2024-04-16 07:00 pm E 5.1 25.1----29.70- 59.5-----
2024-04-16 06:50 pm E 11.1 21.0----29.71- 60.6-----
2024-04-16 06:40 pm E 8.9 17.1----29.72- 60.6-----
2024-04-16 06:30 pm E 7.0 17.1----29.73- 61.0-----
2024-04-16 06:20 pmENE 9.9 18.1----29.73- 61.2-----
2024-04-16 06:10 pm E 8.9 15.0----29.73- 60.8-----
2024-04-16 06:00 pm E 7.0 18.1----29.73-0.14 61.3-----
2024-04-16 05:50 pm E 13.0 22.9----29.74- 62.1-----
2024-04-16 05:40 pm E 15.9 25.1----29.74- 62.2-----
2024-04-16 05:30 pmENE 9.9 18.1----29.74- 61.9-----
2024-04-16 05:20 pm E 8.0 20.0----29.75- 62.4-----
2024-04-16 05:10 pm E 9.9 20.0----29.76-------
2024-04-16 05:00 pm E 9.9 21.0----29.76-0.17------
2024-04-16 04:50 pmENE 11.1 17.1----29.76-------
2024-04-16 04:40 pmENE 11.1 17.1----29.77-------
2024-04-16 04:30 pm E 9.9 21.0----29.77-------
2024-04-16 04:20 pm E 9.9 21.0----29.78-------
2024-04-16 04:10 pm E 14.0 27.0----29.78-------
2024-04-16 04:06 pmENE 17.1 27.0----29.78-------
2024-04-16 04:00 pm NE 11.1 20.0----29.79-0.17 50.9-----
2024-04-16 03:50 pm NE 15.0 18.1----29.80- 54.1-----
2024-04-16 03:41 pm NE 11.1 17.1----29.81- 46.9-----
2024-04-16 03:40 pm NE 11.1 13.0----29.81- 46.9-----
2024-04-16 03:30 pm NE 8.9 15.9----29.83- 45.9-----
2024-04-16 03:20 pm NE 12.0 14.0----29.84- 45.7-----
2024-04-16 03:10 pmENE 13.0 17.1----29.85- 45.9-----
2024-04-16 03:00 pmENE 12.0 15.0----29.87-0.15 45.7-----
2024-04-16 02:50 pmENE 12.0 17.1----29.88- 45.3-----
2024-04-16 02:40 pmENE 13.0 20.0----29.88- 45.0-----
2024-04-16 02:30 pmENE 11.1 13.0----29.91-------
2024-04-16 02:20 pm NE 12.0 17.1----29.91-------
2024-04-16 02:10 pmNNE 14.0 20.0----29.92-------
2024-04-16 02:00 pm NE 8.9 15.0----29.93-0.09------
2024-04-16 01:50 pmENE 9.9 17.1----29.93-------
2024-04-16 01:40 pm NE 12.0 17.1----29.94- 46.4-----
2024-04-16 01:30 pmNNE 1.9 20.0----29.95-------
2024-04-16 01:20 pm NE 8.0 20.0----29.96-------
2024-04-16 01:10 pmENE 15.0 19.0----29.95- 60.8-----
2024-04-16 01:00 pmENE 11.1 19.0----29.96-0.11 60.4-----
2024-04-16 12:50 pmENE 8.9 15.0----29.97- 60.3-----
2024-04-16 12:40 pm E 8.0 18.1----29.99- 61.2-----
2024-04-16 12:30 pm SE 5.1 11.1----30.00- 60.8-----
2024-04-16 12:20 pmENE 4.1 14.0----30.00- 59.9-----
2024-04-16 12:10 pm E 9.9 15.0----30.00- 59.2-----
2024-04-16 12:00 pm E 7.0 12.0----30.02-0.08 59.7-----
2024-04-16 11:50 am E 6.0 12.0----30.02- 59.7-----
2024-04-16 11:40 am E 8.0 11.1----30.03- 59.5-----
2024-04-16 11:30 am E 5.1 13.0----30.03- 59.9-----
2024-04-16 11:20 am E 8.9 17.1----30.04- 58.8-----
2024-04-16 11:10 am E 7.0 17.1----30.02- 57.9-----
2024-04-16 11:00 am E 9.9 18.1----30.02-0.08 56.5-----
2024-04-16 10:50 amENE 8.9 17.1----30.02- 55.8-----
2024-04-16 10:40 am E 4.1 17.1----30.03- 54.5-----
2024-04-16 10:30 am E 8.0 11.1----30.04- 53.8-----
2024-04-16 10:20 am E 6.0 17.1----30.05- 53.2-----
2024-04-16 10:10 amENE 6.0 9.9----30.06- 52.7-----
2024-04-16 10:00 am E 6.0 14.0----30.07-0.04 52.0-----
2024-04-16 09:50 amENE 7.0 13.0----30.07- 52.3-----
2024-04-16 09:40 amENE 8.0 12.0----30.08- 50.5-----
2024-04-16 09:30 amENE 2.9 12.0----30.09- 51.1-----
2024-04-16 09:20 am E 4.1 8.9----30.10- 50.5-----
2024-04-16 09:10 am E 2.9 8.0----30.10- 50.4-----
2024-04-16 09:00 amENE 1.9 8.9----30.10+0.01 49.8-----
2024-04-16 08:50 amESE 1.0 8.0----30.10- 49.5-----
2024-04-16 08:40 am- 0.0 5.1----30.10- 48.9-----
2024-04-16 08:30 amENE 4.1 6.0----30.10- 48.2-----
2024-04-16 08:20 am E 2.9 8.0----30.09- 48.4-----
2024-04-16 08:10 amENE 1.0 7.0----30.10- 48.2-----
2024-04-16 08:00 amESE 1.0 4.1----30.10+0.03 46.9-----
2024-04-16 07:50 amENE 2.9 7.0----30.10- 46.8-----
2024-04-16 07:40 amENE 1.0 7.0----30.11- 46.8-----
2024-04-16 07:30 am- 0.0 2.9----30.11- 46.9-----
2024-04-16 07:20 am- 0.0 1.9----30.11- 47.1-----
2024-04-16 07:10 am- 0.0 2.9----30.11- 46.2-----
2024-04-16 07:00 am- 0.0 4.1----30.11+0.09 45.9-----
2024-04-16 06:50 am- 0.0 1.0----30.11- 45.9-----
2024-04-16 06:40 am- 0.0 1.0----30.10- 46.8-----
2024-04-16 06:30 am- 0.0 7.0----30.10- 46.2-----
2024-04-16 06:20 amESE 2.9 7.0----30.08- 45.0-----
2024-04-16 06:10 am- 0.0 0.0----30.10- 44.2-----
2024-04-16 06:00 am- 0.0 1.0----30.09+0.01 45.9-----
2024-04-16 05:50 am- 0.0 4.1----30.09- 45.3-----
2024-04-16 05:40 am- 0.0 6.0----30.09- 45.1-----
2024-04-16 05:30 am- 0.0 1.9----30.08- 45.1-----
2024-04-16 05:20 am- 0.0 1.9----30.09- 46.0-----
2024-04-16 05:10 am- 0.0 1.9----30.08- 45.9-----
2024-04-16 05:00 amWSW 2.9 14.0----30.07- 47.5-----
2024-04-16 04:50 amESE 2.9 9.9----30.06- 47.8-----
2024-04-16 04:40 am S 4.1 14.0----30.05- 47.8-----
2024-04-16 04:30 am S 2.9 13.0----30.04- 47.8-----
2024-04-16 04:20 am S 6.0 12.0----30.04- 47.8-----
2024-04-16 04:10 am- 0.0 13.0----30.04- 47.7-----
2024-04-16 04:00 amSSE 5.1 14.0----30.02-0.08 47.7-----
2024-04-16 03:50 amSSE 1.9 7.0----30.03- 47.8-----
2024-04-16 03:40 amSSE 1.9 8.0----30.05- 48.0-----
2024-04-16 03:30 am- 0.0 7.0----30.06- 48.4-----
2024-04-16 03:20 am- 0.0 6.0----30.07- 48.2-----
2024-04-16 03:10 am- 0.0 4.1----30.07- 48.4-----
2024-04-16 03:00 am S 1.0 5.1----30.08-0.01 48.6-----
2024-04-16 02:50 am- 0.0 6.0----30.08- 47.7-----